Location: Bellflower
(33.8817°N, 118.1170°W)
Time: 22:41:51
(UTC+00:00)

USA 234 - Pass Details

Date: 23 November 2020
Orbit: 1098 x 1110 km, 123.0° (Epoch: 17 January)

Event Time Altitude Azimuth Distance (km) Brightness Sun altitude
Rises 13:54:20 0° 35° (NE) 3,936 6.4 -8.2°
Reaches altitude 10° 13:57:02 10° 27° (NNE) 2,976 5.6 -7.7°
Maximum altitude 14:02:51 35° 325° (NW) 1,705 3.9 -6.6°
Drops below altitude 10° 14:08:39 10° 262° (W) 2,965 5.0 -5.5°
Sets 14:11:21 0° 254° (WSW) 3,919 5.7 -4.9°
